| time (UTC) | temp F | wind direction | speed MPH | gust MPH | rain 1hr in | rain 24hr in | rain mn in | humidity % | barometer mb |
| 20260903033637 | 73 | 214 | 3.0 | 6.0 | 0.00 | 0.02 | 0.01 | 85 | 1016.1 |
| 20260903032617 | 75 | 229 | 3.0 | 7.0 | 0.00 | 0.02 | 0.01 | 83 | 1016.0 |
| 20260903031637 | 75 | 217 | 2.0 | 4.0 | 0.00 | 0.02 | 0.01 | 84 | 1015.8 |
| 20260903030616 | 75 | 208 | 2.0 | 5.0 | 0.00 | 0.02 | 0.01 | 85 | 1015.8 |
| 20260903025617 | 76 | 212 | 7.0 | 10.0 | 0.00 | 0.02 | 0.01 | 83 | 1015.8 |
| 20260903024617 | 77 | 218 | 3.0 | 7.0 | 0.00 | 0.02 | 0.01 | 82 | 1015.7 |
| 20260903023617 | 77 | 209 | 3.0 | 5.0 | 0.00 | 0.02 | 0.01 | 82 | 1015.7 |
| 20260903022617 | 77 | 197 | 4.0 | 11.0 | 0.00 | 0.02 | 0.01 | 82 | 1015.8 |
| 20260903021617 | 77 | 218 | 3.0 | 8.0 | 0.00 | 0.02 | 0.01 | 83 | 1015.7 |
| 20260903020617 | 77 | 215 | 4.0 | 6.0 | 0.00 | 0.02 | 0.01 | 82 | 1015.8 |
| 20260903015637 | 77 | 235 | 2.0 | 4.0 | 0.00 | 0.02 | 0.01 | 81 | 1015.8 |
| 20260903014617 | 77 | 230 | 1.0 | 4.0 | 0.00 | 0.02 | 0.01 | 83 | 1015.7 |
| 20260903013617 | 78 | 223 | 3.0 | 6.0 | 0.00 | 0.02 | 0.01 | 83 | 1015.7 |
| 20260903012637 | 77 | 264 | 1.0 | 3.0 | 0.00 | 0.02 | 0.01 | 83 | 1015.6 |
| 20260903011617 | 77 | 331 | 2.0 | 3.0 | 0.00 | 0.02 | 0.01 | 79 | 1015.7 |
| 20260903010617 | 78 | 298 | 2.0 | 3.0 | 0.00 | 0.02 | 0.01 | 80 | 1015.9 |
| 20260903005616 | 77 | 291 | 1.0 | 3.0 | 0.00 | 0.02 | 0.01 | 83 | 1015.9 |
| 20260903004637 | 75 | 225 | 1.0 | 2.0 | 0.00 | 0.02 | 0.01 | 85 | 1015.9 |
| 20260903003616 | 74 | 184 | 0.0 | 1.0 | 0.00 | 0.02 | 0.01 | 87 | 1015.9 |
| 20260903002617 | 74 | 314 | 0.0 | 1.0 | 0.00 | 0.02 | 0.01 | 86 | 1016.0 |
| 20260903001616 | 75 | 334 | 2.0 | 3.0 | 0.00 | 0.02 | 0.01 | 86 | 1016.0 |
| 20260903000616 | 76 | 244 | 1.0 | 2.0 | 0.00 | 0.02 | 0.01 | 85 | 1016.1 |
| 20260902235616 | 75 | 333 | 0.0 | 2.0 | 0.00 | 0.02 | 0.01 | 84 | 1016.2 |
| 20260902234617 | 75 | 349 | 1.0 | 3.0 | 0.00 | 0.02 | 0.01 | 83 | 1016.3 |
| 20260902233616 | 74 | 9 | 1.0 | 2.0 | 0.00 | 0.02 | 0.01 | 87 | 1016.4 |
| 20260902232616 | 73 | 113 | 0.0 | 2.0 | 0.00 | 0.02 | 0.01 | 87 | 1016.7 |
| 20260902231616 | 74 | 190 | 0.0 | 3.0 | 0.01 | 0.02 | 0.01 | 85 | 1016.9 |
| 20260902230616 | 73 | 252 | 1.0 | 2.0 | 0.01 | 0.02 | 0.01 | 88 | 1016.9 |
| 20260902225616 | 73 | 212 | 2.0 | 3.0 | 0.01 | 0.02 | 0.01 | 89 | 1017.0 |
| 20260902224617 | 73 | 215 | 0.0 | 1.0 | 0.01 | 0.02 | 0.01 | 90 | 1017.1 |
| 20260902223616 | 72 | 195 | 1.0 | 2.0 | 0.01 | 0.02 | 0.01 | 91 | 1017.0 |
| 20260902222616 | 72 | 304 | 1.0 | 3.0 | 0.01 | 0.02 | 0.01 | 93 | 1017.2 |
| 20260902221616 | 72 | 212 | 0.0 | 2.0 | 0.00 | 0.01 | 0.00 | 91 | 1017.4 |
| 20260902220616 | 72 | 233 | 2.0 | 4.0 | 0.00 | 0.01 | 0.00 | 91 | 1017.4 |
| 20260902215616 | 72 | 14 | 2.0 | 3.0 | 0.00 | 0.01 | 0.00 | 89 | 1017.5 |
| 20260902214657 | 73 | 44 | 1.0 | 2.0 | 0.00 | 0.01 | 0.00 | 88 | 1017.5 |
| 20260902213616 | 73 | 339 | 0.0 | 1.0 | 0.00 | 0.01 | 0.00 | 89 | 1017.6 |
| 20260902212616 | 73 | 333 | 0.0 | 2.0 | 0.00 | 0.01 | 0.00 | 90 | 1017.7 |
| 20260902211657 | 72 | 304 | 1.0 | 1.0 | 0.00 | 0.01 | 0.00 | 92 | 1017.8 |
| 20260902210617 | 72 | 276 | 0.0 | 2.0 | 0.00 | 0.01 | 0.00 | 93 | 1017.9 |
| 20260902205616 | 72 | 0.0 | 0.0 | 0.00 | 0.01 | 0.00 | 92 | 1018.0 | |
| 20260902204617 | 72 | 308 | 1.0 | 3.0 | 0.00 | 0.01 | 0.00 | 91 | 1017.9 |
| 20260902203637 | 72 | 257 | 1.0 | 3.0 | 0.00 | 0.01 | 0.00 | 91 | 1018.0 |
| 20260902202616 | 72 | 342 | 0.0 | 1.0 | 0.00 | 0.01 | 0.00 | 91 | 1018.0 |
| 20260902201616 | 72 | 275 | 0.0 | 1.0 | 0.00 | 0.01 | 0.00 | 91 | 1018.1 |
| 20260902200616 | 73 | 196 | 0.0 | 1.0 | 0.00 | 0.01 | 0.00 | 93 | 1017.9 |
| 20260902195636 | 72 | 301 | 0.0 | 2.0 | 0.00 | 0.01 | 0.00 | 94 | 1017.8 |
| 20260902194616 | 71 | 277 | 1.0 | 2.0 | 0.00 | 0.01 | 0.00 | 93 | 1017.8 |
| 20260902193656 | 71 | 0.0 | 1.0 | 0.00 | 0.01 | 0.00 | 94 | 1017.9 | |
| 20260902192616 | 71 | 0.0 | 1.0 | 0.00 | 0.01 | 0.00 | 94 | 1017.8 | |
| 20260902191616 | 71 | 218 | 1.0 | 2.0 | 0.00 | 0.01 | 0.00 | 94 | 1017.9 |
| 20260902190616 | 71 | 324 | 0.0 | 1.0 | 0.00 | 0.01 | 0.00 | 93 | 1017.8 |
| 20260902185637 | 71 | 274 | 1.0 | 3.0 | 0.00 | 0.01 | 0.00 | 93 | 1017.7 |
| 20260902184617 | 71 | 330 | 1.0 | 2.0 | 0.00 | 0.01 | 0.00 | 93 | 1017.8 |
| 20260902183616 | 70 | 352 | 1.0 | 2.0 | 0.00 | 0.01 | 0.00 | 93 | 1017.7 |
| 20260902182616 | 70 | 321 | 0.0 | 1.0 | 0.00 | 0.01 | 0.00 | 94 | 1017.7 |
| 20260902181616 | 69 | 0.0 | 0.0 | 0.00 | 0.01 | 0.00 | 94 | 1017.7 | |
| 20260902180637 | 69 | 0.0 | 0.0 | 0.00 | 0.01 | 0.00 | 94 | 1017.5 | |
| 20260902175616 | 69 | 0.0 | 0.0 | 0.00 | 0.01 | 0.00 | 94 | 1017.4 | |
| 20260902174616 | 68 | 0.0 | 0.0 | 0.00 | 0.01 | 0.00 | 95 | 1017.2 | |
| 20260902173616 | 68 | 0.0 | 0.0 | 0.00 | 0.01 | 0.00 | 96 | 1017.3 | |
| 20260902172617 | 67 | 0.0 | 0.0 | 0.00 | 0.01 | 0.00 | 96 | 1017.3 | |
| 20260902171617 | 67 | 0.0 | 0.0 | 0.00 | 0.01 | 0.00 | 97 | 1017.0 | |
| 20260902170617 | 66 | 0.0 | 0.0 | 0.00 | 0.01 | 0.00 | 96 | 1016.9 | |
| 20260902165617 | 65 | 0.0 | 0.0 | 0.00 | 0.01 | 0.00 | 96 | 1016.9 | |
| 20260902164617 | 65 | 0.0 | 0.0 | 0.00 | 0.01 | 0.00 | 95 | 1016.7 | |
| 20260902163616 | 65 | 0.0 | 0.0 | 0.00 | 0.01 | 0.00 | 96 | 1016.6 | |
| 20260902162617 | 65 | 0.0 | 0.0 | 0.00 | 0.01 | 0.00 | 95 | 1016.6 | |
| 20260902161617 | 65 | 0.0 | 0.0 | 0.00 | 0.01 | 0.00 | 95 | 1016.5 | |
| 20260902160616 | 66 | 0.0 | 0.0 | 0.00 | 0.01 | 0.00 | 95 | 1016.5 | |
| 20260902155616 | 66 | 0.0 | 0.0 | 0.00 | 0.01 | 0.00 | 96 | 1016.4 | |
| 20260902154616 | 65 | 117 | 0.0 | 1.0 | 0.00 | 0.01 | 0.00 | 95 | 1016.3 |
| 20260902153617 | 65 | 121 | 1.0 | 2.0 | 0.00 | 0.01 | 0.00 | 95 | 1016.2 |
| 20260902152616 | 65 | 102 | 1.0 | 2.0 | 0.00 | 0.01 | 0.00 | 95 | 1016.2 |
| 20260902151757 | 65 | 105 | 1.0 | 2.0 | 0.00 | 0.01 | 0.00 | 95 | 1016.1 |
| 20260902150617 | 65 | 0.0 | 0.0 | 0.00 | 0.01 | 0.00 | 94 | 1016.0 | |
| 20260902145616 | 65 | 0.0 | 0.0 | 0.00 | 0.01 | 0.00 | 95 | 1016.0 | |
| 20260902144616 | 65 | 102 | 1.0 | 2.0 | 0.00 | 0.01 | 0.00 | 95 | 1016.0 |
| 20260902143616 | 64 | 103 | 1.0 | 2.0 | 0.00 | 0.01 | 0.00 | 95 | 1016.0 |
| 20260902142636 | 64 | 109 | 2.0 | 3.0 | 0.00 | 0.01 | 0.00 | 94 | 1016.1 |
| 20260902141616 | 64 | 110 | 2.0 | 3.0 | 0.00 | 0.01 | 0.00 | 95 | 1016.0 |
| 20260902140637 | 64 | 105 | 1.0 | 2.0 | 0.00 | 0.01 | 0.00 | 94 | 1015.9 |
| 20260902135616 | 64 | 103 | 1.0 | 2.0 | 0.00 | 0.01 | 0.00 | 93 | 1016.0 |
| 20260902134616 | 65 | 124 | 1.0 | 2.0 | 0.00 | 0.01 | 0.00 | 93 | 1016.0 |
| 20260902133617 | 65 | 100 | 2.0 | 3.0 | 0.00 | 0.01 | 0.00 | 94 | 1016.0 |
| 20260902132616 | 65 | 71 | 0.0 | 1.0 | 0.00 | 0.01 | 0.00 | 93 | 1016.0 |
| 20260902131616 | 64 | 112 | 2.0 | 4.0 | 0.00 | 0.01 | 0.00 | 93 | 1016.1 |
| 20260902130616 | 64 | 112 | 2.0 | 2.0 | 0.00 | 0.01 | 0.00 | 93 | 1016.1 |
| 20260902125617 | 64 | 95 | 2.0 | 3.0 | 0.00 | 0.01 | 0.00 | 93 | 1016.0 |
| 20260902124616 | 63 | 111 | 1.0 | 2.0 | 0.00 | 0.01 | 0.00 | 92 | 1016.1 |
| 20260902123616 | 64 | 102 | 1.0 | 2.0 | 0.00 | 0.01 | 0.00 | 92 | 1015.9 |
| 20260902122616 | 64 | 105 | 2.0 | 2.0 | 0.00 | 0.01 | 0.00 | 91 | 1016.0 |
| 20260902121616 | 64 | 114 | 1.0 | 2.0 | 0.00 | 0.01 | 0.00 | 90 | 1016.0 |
| 20260902120616 | 64 | 91 | 2.0 | 4.0 | 0.00 | 0.01 | 0.00 | 89 | 1016.1 |
| 20260902115616 | 64 | 101 | 2.0 | 3.0 | 0.00 | 0.01 | 0.00 | 88 | 1016.2 |
| 20260902114616 | 64 | 95 | 1.0 | 2.0 | 0.00 | 0.01 | 0.00 | 87 | 1016.4 |
| 20260902113617 | 64 | 114 | 2.0 | 3.0 | 0.00 | 0.01 | 0.00 | 87 | 1016.6 |
| 20260902112617 | 64 | 113 | 2.0 | 3.0 | 0.00 | 0.01 | 0.00 | 87 | 1016.7 |
| 20260902111616 | 64 | 100 | 3.0 | 4.0 | 0.00 | 0.01 | 0.00 | 88 | 1016.8 |
| 20260902110616 | 64 | 126 | 2.0 | 4.0 | 0.00 | 0.01 | 0.00 | 88 | 1017.0 |
| 20260902105636 | 64 | 118 | 2.0 | 3.0 | 0.00 | 0.01 | 0.00 | 87 | 1017.0 |
| 20260902104616 | 64 | 101 | 2.0 | 3.0 | 0.00 | 0.01 | 0.00 | 85 | 1017.2 |
| 20260902103616 | 65 | 103 | 2.0 | 3.0 | 0.00 | 0.01 | 0.00 | 86 | 1017.2 |
| 20260902102617 | 65 | 100 | 3.0 | 3.0 | 0.00 | 0.01 | 0.00 | 86 | 1017.3 |
| 20260902101616 | 65 | 107 | 2.0 | 3.0 | 0.00 | 0.01 | 0.00 | 86 | 1017.2 |
| 20260902100636 | 64 | 104 | 1.0 | 2.0 | 0.00 | 0.01 | 0.00 | 88 | 1017.2 |
| 20260902095616 | 64 | 134 | 2.0 | 3.0 | 0.00 | 0.01 | 0.01 | 87 | 1017.3 |
| 20260902094616 | 65 | 128 | 2.0 | 2.0 | 0.00 | 0.01 | 0.01 | 87 | 1017.4 |
| 20260902093616 | 64 | 143 | 2.0 | 3.0 | 0.00 | 0.01 | 0.01 | 89 | 1017.5 |
| 20260902092616 | 64 | 134 | 2.0 | 3.0 | 0.00 | 0.01 | 0.01 | 88 | 1017.7 |
| 20260902091616 | 64 | 110 | 3.0 | 3.0 | 0.00 | 0.01 | 0.01 | 88 | 1017.8 |
| 20260902090617 | 64 | 120 | 3.0 | 3.0 | 0.00 | 0.01 | 0.01 | 88 | 1017.9 |
| 20260902085616 | 64 | 114 | 1.0 | 2.0 | 0.00 | 0.01 | 0.01 | 88 | 1018.1 |
| 20260902084617 | 64 | 106 | 1.0 | 2.0 | 0.00 | 0.01 | 0.01 | 88 | 1018.1 |
| 20260902083617 | 64 | 121 | 2.0 | 3.0 | 0.00 | 0.01 | 0.01 | 88 | 1018.0 |
| 20260902082616 | 64 | 114 | 2.0 | 4.0 | 0.00 | 0.01 | 0.01 | 87 | 1017.9 |
| 20260902081636 | 64 | 127 | 2.0 | 3.0 | 0.00 | 0.01 | 0.01 | 90 | 1017.9 |
| 20260902080616 | 64 | 112 | 2.0 | 3.0 | 0.00 | 0.01 | 0.01 | 90 | 1018.0 |
| 20260902075636 | 64 | 112 | 3.0 | 3.0 | 0.00 | 0.01 | 0.01 | 90 | 1018.1 |
| 20260902074616 | 64 | 117 | 2.0 | 3.0 | 0.00 | 0.01 | 0.01 | 91 | 1018.0 |
| 20260902073616 | 65 | 110 | 1.0 | 2.0 | 0.00 | 0.01 | 0.01 | 92 | 1018.3 |
| 20260902072616 | 66 | 92 | 1.0 | 2.0 | 0.00 | 0.01 | 0.01 | 95 | 1018.3 |
| 20260902071616 | 67 | 115 | 1.0 | 2.0 | 0.00 | 0.01 | 0.01 | 95 | 1018.3 |
| 20260902070616 | 67 | 139 | 0.0 | 1.0 | 0.01 | 0.01 | 0.01 | 95 | 1018.2 |
| 20260902065616 | 67 | 139 | 0.0 | 1.0 | 0.01 | 0.01 | 0.01 | 95 | 1018.3 |
| 20260902064616 | 67 | 117 | 1.0 | 1.0 | 0.01 | 0.01 | 0.01 | 95 | 1018.1 |
| 20260902063636 | 68 | 111 | 0.0 | 1.0 | 0.01 | 0.01 | 0.01 | 95 | 1018.2 |
| 20260902062617 | 68 | 113 | 0.0 | 1.0 | 0.01 | 0.01 | 0.01 | 95 | 1018.1 |
| 20260902060616 | 68 | 33 | 0.0 | 2.0 | 0.00 | 0.00 | 0.00 | 96 | 1017.9 |
| 20260902055616 | 68 | 114 | 0.0 | 1.0 | 0.00 | 0.00 | 0.00 | 96 | 1017.6 |
| 20260902054616 | 68 | 0.0 | 0.0 | 0.00 | 0.00 | 0.00 | 95 | 1017.6 | |
| 20260902053636 | 69 | 0.0 | 0.0 | 0.00 | 0.00 | 0.00 | 94 | 1017.7 | |
| 20260902052616 | 69 | 0.0 | 0.0 | 0.00 | 0.00 | 0.00 | 94 | 1017.6 | |
| 20260902051616 | 69 | 0.0 | 0.0 | 0.00 | 0.00 | 0.00 | 94 | 1017.6 | |
| 20260902050616 | 69 | 0.0 | 0.0 | 0.00 | 0.00 | 0.00 | 93 | 1017.4 | |
| 20260902045617 | 70 | 0.0 | 0.0 | 0.00 | 0.00 | 0.00 | 93 | 1017.3 | |
| 20260902044616 | 70 | 351 | 0.0 | 2.0 | 0.00 | 0.00 | 0.00 | 92 | 1017.3 |
| 20260902043616 | 70 | 0.0 | 0.0 | 0.00 | 0.00 | 0.00 | 92 | 1017.3 | |
| 20260902042656 | 70 | 0.0 | 0.0 | 0.00 | 0.00 | 0.00 | 92 | 1017.1 | |
| 20260902041616 | 71 | 0.0 | 1.0 | 0.00 | 0.00 | 0.00 | 91 | 1017.1 | |
| 20260902040616 | 71 | 0.0 | 1.0 | 0.00 | 0.00 | 0.00 | 91 | 1017.1 | |
| 20260902035636 | 71 | 213 | 2.0 | 4.0 | 0.00 | 0.00 | 0.00 | 91 | 1017.0 |
| 20260902034636 | 70 | 206 | 1.0 | 3.0 | 0.00 | 0.00 | 0.00 | 91 | 1017.0 |